Location: Hengforden
(52.3167°N, 6.1333°E)
Time: 15:20:05
(UTC+00:00)

BREEZE-M DEB (TANK) - Pass Details

Date: 14 June 2025
Orbit: 310 x 13770 km, 49.5° (Epoch: 19 July)

Event Time Altitude Azimuth Distance (km) Brightness Sun altitude
Rises 23:13:11 0° 218° (SW) 6,655 7.7 -14.2°
Enters shadow 23:18:27 - 211° (SSW) 4,498 6.7 -14.3°
Exits shadow 23:24:56 21° 175° (S) 1,942 4.7 -14.3°
Maximum altitude 23:25:48 22° 162° (SSE) 1,721 4.5 -14.3°
Drops below altitude 10° 23:28:42 10° 109° (ESE) 1,762 5.0 -14.4°
Sets 23:30:28 0° 89° (E) 2,327 5.8 -14.4°
